Notices

What's New in latest Release from April 7th, 2021:

- Updated Glossary, including Speed of Maximum Gust, and Total Hourly Precipitation

- Updated national and regional climate services offices contacts and prices information

- Addition of station inventory lists for 1981-2010, 1971-2000, and 1961-1990 Normals.

If you haven't already, please take our survey and provide feedback about our website: https://eccc.sondage-survey.ca/f/LanguageSelection.aspx?s=442ca660-fcf1-47c0-95a9-59707d6fd709

Hourly Data Report for April 14, 2021

NANAIMO A
BRITISH COLUMBIA
Current Station Operator: NAVCAN

49°03'16.000" N
123°52'12.000" W
28.00 m
1025365
YCD

Download Data

Hourly Data (April 2021)
Hourly Data Report for April 14, 2021
TIME
LST
Temp Definition
°C
Dew Point Definition
°C
Rel Hum Definition
%
Precip. Amount Definition
mm

Wind Dir Definition
10's deg

Wind Spd Definition
km/h
Visibility Definition
km
Stn Press Definition
kPa
Hmdx Definition


Wind Chill Definition


Weather Definition


00:00 7.8 -4.4 42 LegendMM 27 16 LegendMM 102.24     LegendNANA
01:00 7.7 -4.5 41 LegendMM 29 15 LegendMM 102.23     LegendNANA
02:00 6.1 -4.0 48 LegendMM 29 8 LegendMM 102.22     LegendNANA
03:00 7.3 -4.2 44 LegendMM 28 10 LegendMM 102.21     LegendNANA
04:00 7.7 -4.0 43 LegendMM 29 13 LegendMM 102.21     LegendNANA
05:00 4.0 -4.0 56 LegendMM 29 5 LegendMM 102.22     LegendNANA
06:00 6.3 -3.2 51 LegendMM 28 9 LegendMM 102.22     LegendNANA
07:00 8.8 -3.0 43 LegendMM 29 14 LegendMM 102.22     LegendNANA
08:00 11.8 -1.3 40 LegendMM 31 7 LegendMM 102.18     LegendNANA
09:00 14.7 0.7 38 LegendMM 2 11 LegendMM 102.14     LegendNANA
10:00 15.9 0.6 35 LegendMM 2 14 LegendMM 102.08     LegendNANA
11:00 17.4 0.8 32 LegendMM 2 14 LegendMM 102.01     LegendNANA
12:00 18.9 -0.6 27 LegendMM 1 14 LegendMM 101.92     LegendNANA
13:00 19.3 1.6 30 LegendMM 1 20 LegendMM 101.85     LegendNANA
14:00 20.0 0.7 27 LegendMM 1 22 LegendMM 101.75     LegendNANA
15:00 20.5 -1.0 23 LegendMM 3 18 LegendMM 101.69     LegendNANA
16:00 21.2 -1.5 22 LegendMM 1 22 LegendMM 101.60     LegendNANA
17:00 20.6 -1.3 23 LegendMM 36 16 LegendMM 101.55     LegendNANA
18:00 18.7 0.3 29 LegendMM 1 12 LegendMM 101.51     LegendNANA
19:00 16.5 -1.4 29 LegendMM 24 4 LegendMM 101.52     LegendNANA
20:00 15.1 -4.1 26 LegendMM 26 13 LegendMM 101.56     LegendNANA
21:00 13.6 -4.5 28 LegendMM 26 14 LegendMM 101.59     LegendNANA
22:00 12.5 -3.2 33 LegendMM 27 15 LegendMM 101.60     LegendNANA
23:00 11.5 -3.2 36 LegendMM 27 15 LegendMM 101.60     LegendNANA

Notes on Data Quality.

Legend

  • E = Estimated
  • M = Missing
  • NA = Not Available*
  • [empty] = Indicates an unobserved value
Date modified: